Regional Weather Roundup
Issued by NWS

Home | Current Version | Previous Version | Text Only | Print | Product List | Glossary Off
Versions: 1 2 3 4 5 6 7 8 9 10 11 12 13 14 15 16 17 18 19 20 21 22 23 24 25 26 27 28 29 30 31 32 33 34 35 36 37 38 39 40 41 42 43 44 45 46 47 48 49 50

000
ASUS43 KIND 201700
RWRIN

WEATHER ROUNDUP FOR INDIANA
NATIONAL WEATHER SERVICE INDIANAPOLIS IN
100 PM EDT SUN AUG 20 2017

NOTE: "FAIR" INDICATES FEW OR NO CLOUDS BELOW 12,000 FEET WITH NO
SIGNIFICANT WEATHER AND/OR OBSTRUCTIONS TO VISIBILITY.

* - STATION DOES NOT REPORT WEATHER SUCH AS PRECIPITATION OR FOG.

+ - STATION NOT QUALITY CONTROLLED BY THE NATIONAL WEATHER SERVICE.
    USE DATA WITH CAUTION...ESPECIALLY DEWPOINT AND RELATIVE
    HUMIDITY OBSERVATIONS.

INZ001>003-010>013-019-020-201800-
NORTHWEST INDIANA

CITY           SKY/WX    TMP DP  RH WIND       PRES   REMARKS
GARY /AIRPORT/ PTSUNNY   84  61  45 S6        30.05F
MONTICELLO +   SUNNY     83  67  58 SW3       30.06S

$$

LMZ046-743>745-201800-
SOUTHERN LAKE MICHIGAN

STATION/POSITION TIME  TEMP    WIND        PRES    WAVE
                       AIR SEA DIR/SP/G            HT
                 (UTC) (F)     (DEG/KT/KT) (MB)    (FT)
BURNS HARBOR     1640   82     200/  7/ 12 1017.9F
MICHIGAN CITY    1630   79     170/  4/  5   N/A
5NW MICH CITY    1650   78 75  200/  2/  2   N/A     1

$$

INZ004-005-014>016-021>024-201800-
NORTH CENTRAL INDIANA

CITY           SKY/WX    TMP DP  RH WIND       PRES   REMARKS
GOSHEN         SUNNY     81  63  54 VRB3      30.09F
PERU/GRISSOM   SUNNY     84  69  62 SW5       30.07S
SOUTH BEND     MOSUNNY   82  64  54 S8        30.08F

$$

INZ006>009-017-018-025>027-201800-
NORTHEAST INDIANA

CITY           SKY/WX    TMP DP  RH WIND       PRES   REMARKS
FORT WAYNE     MOSUNNY   83  64  52 S6        30.08F

$$

INZ028-029-035-036-043>045-051>053-201800-
WEST CENTRAL INDIANA

CITY           SKY/WX    TMP DP  RH WIND       PRES   REMARKS
LAFAYETTE      CLOUDY    86  67  52 CALM      30.06S
TERRE HAUTE    CLOUDY    87  70  56 S7        30.07S

$$

INZ030>032-037>040-046>048-054>057-064-065-201800-
CENTRAL INDIANA

CITY           SKY/WX    TMP DP  RH WIND       PRES   REMARKS
COLUMBUS       MOSUNNY   86  55  35 SW9       30.09R
GREENWOOD *+   SUNNY     85  63  47 S5        30.09S
INDIANAPOLIS   CLOUDY    86  63  45 SW6       30.08S
-EAGLE CREEK   CLOUDY    87  63  44 SW8       30.08R
KOKOMO +       PTSUNNY   84  69  60 SW5       30.09S
MT COMFORT *+  MOSUNNY   84  68  58 S5        30.09S
SHELBYVILLE    SUNNY     86  66  51 SW5       30.08F

$$

INZ033-034-041-042-049-050-058-059-201800-
EAST CENTRAL INDIANA

CITY           SKY/WX    TMP DP  RH WIND       PRES   REMARKS
MUNCIE         PTSUNNY   85  68  56 SW3       30.08F
RICHMOND +     MOSUNNY   79  70  73 SW8       30.12S

$$

INZ060-061-067>069-081>083-085>088-201800-
SOUTHWEST INDIANA

CITY           SKY/WX    TMP DP  RH WIND       PRES   REMARKS
EVANSVILLE     SUNNY     88  74  63 E8        30.07F HX  96
HUNTINGBURG +  MOSUNNY   86  75  69 SE7       30.08F HX  95

$$

INZ062-063-066-070>080-084-089>092-201800-
SOUTH CENTRAL AND SOUTHEAST INDIANA

CITY           SKY/WX    TMP DP  RH WIND       PRES   REMARKS
BLOOMINGTON    CLOUDY    87  67  51 S7        30.09S
MADISON *+     MOSUNNY   88  64  45 SE3       30.12F
SEYMOUR +      MOSUNNY   90  70  51 S7        30.08F HX  95

$$




USA.gov is the U.S. government's official web portal to all federal, state and local government web resources and services.